Location: Béaulencourt
(50.0796°N, 2.8795°E)
Time: 23:45:52
(UTC+00:00)

Cosmos 1023 Rocket - Visible Passes

Search period start: 18 April 2026 00:00
Search period end: 28 April 2026 00:00
Orbit: 731 x 767 km, 74.1° (Epoch: 18 April)

Date Brightness Start Highest point End Pass type
(mag) Time Alt. Az. Time Alt. Az. Time Alt. Az.
18 Apr 6.3 19:54:10 10° N 19:57:36 18° NE 20:01:00 10° E visible
18 Apr 4.3 21:34:56 10° NNW 21:40:04 85° ENE 21:40:58 61° SSE visible
18 Apr 6.6 23:18:10 10° WNW 23:20:50 15° W 23:20:50 15° W visible
19 Apr 4.8 20:52:14 10° NNW 20:57:13 49° ENE 20:59:07 33° ESE visible
19 Apr 5.8 22:34:22 10° NW 22:38:35 27° W 22:38:59 26° WSW visible
20 Apr 5.6 20:09:42 10° N 20:14:12 30° NE 20:17:18 17° ESE visible
20 Apr 5.0 21:51:11 10° NNW 21:56:04 48° WSW 21:57:10 40° SW visible
21 Apr 6.1 19:27:22 10° N 19:31:02 19° NE 19:34:39 10° E visible
21 Apr 4.4 21:08:15 10° NNW 21:13:23 85° WSW 21:15:23 38° SSE visible
21 Apr 6.7 22:51:56 10° WNW 22:54:10 13° W 22:55:15 12° WSW visible
22 Apr 4.7 20:25:32 10° NNW 20:30:34 56° ENE 20:33:37 23° SE visible
22 Apr 6.1 22:07:50 10° NW 22:11:50 24° W 22:13:29 20° SW visible
23 Apr 5.4 19:42:57 10° N 19:47:35 33° NE 19:51:52 11° ESE visible
23 Apr 5.3 21:24:33 10° NW 21:29:20 42° WSW 21:31:45 25° SSW visible
24 Apr 4.5 20:41:35 10° NNW 20:46:41 75° WSW 20:50:03 21° SSE visible
24 Apr 6.9 22:25:58 10° WNW 22:27:23 11° W 22:28:47 10° WSW visible
25 Apr 4.5 19:58:50 10° NNW 20:03:54 63° ENE 20:08:23 13° SE visible
25 Apr 6.4 21:41:21 10° NW 21:45:03 21° W 21:48:16 12° SW visible
26 Apr 5.6 20:57:57 10° NW 21:02:35 36° WSW 21:06:39 13° SSW visible
27 Apr 4.7 20:14:56 10° NNW 20:19:59 66° WSW 20:24:58 10° S visible
